Location: Unspecified
(0.0000°N, 0.0000°E)
Time: 11:30:21
(UTC+00:00)

Envisat - Pass Details

Date: 18 June 2021
Orbit: 764 x 766 km, 98.1° (Epoch: 18 June)

Event Time Altitude Azimuth Distance (km) Brightness Sun altitude
Rises 03:54:10 0° 48° (NE) 3,216 7.4 -28.9°
Reaches altitude 10° 03:57:43 10° 75° (ENE) 2,295 6.4 -28.1°
Maximum altitude 04:00:04 13° 103° (ESE) 2,075 5.8 -27.6°
Drops below altitude 10° 04:02:25 10° 131° (SE) 2,300 5.7 -27.0°
Sets 04:05:58 0° 157° (SSE) 3,229 6.2 -26.2°
